Location: Limoges
(45.8354°N, 1.2645°E)
Time: 18:29:55
(UTC+02:00)

Vanguard 2 Rocket - Pass Details

Date: 26 February 2024
Orbit: 555 x 3307 km, 32.9° (Epoch: 23 April)

Event Time Altitude Azimuth Distance (km) Brightness Sun altitude
Rises 20:08:04 0° 271° (W) 5,730 12.8 -16.7°
Reaches altitude 10° 20:11:54 10° 263° (W) 5,073 11.9 -17.4°
Maximum altitude 20:25:13 34° 206° (SSW) 4,263 10.4 -19.7°
Drops below altitude 10° 20:41:46 10° 151° (SSE) 6,245 10.8 -22.5°
Enters shadow 20:45:40 - 146° (SE) 6,897 11.0 -23.2°
